DW4360 Weather Reports


time (UTC)temp
C
wind
direction
speed
KPH
gust
KPH
rain 1hr
cm
rain 24hr
cm
rain mn
cm
humidity
%
barometer
mb
20260508222405 22 240 0.0 0.0 0.00 0.00 0.00 44 1020.3
20260508221404 22 304 0.0 0.0 0.00 0.00 0.00 45 1020.4
20260508220404 22 209 0.0 0.0 0.00 0.00 0.00 45 1020.3
20260508214402 21 328 4.8 0.0 0.00 0.00 0.00 46 1020.5
20260508212359 21 213 4.8 0.0 0.00 0.00 0.00 46 1020.6
20260508211358 21 251 1.6 0.0 0.00 0.00 0.00 48 1020.6
20260508210357 21 166 0.0 0.0 0.00 0.00 0.00 48 1020.5
20260508205356 20 146 8.0 0.0 0.00 0.00 0.00 49 1020.6
20260508204355 20 201 0.0 0.0 0.00 0.00 0.00 47 1020.6
20260508203354 20 216 0.0 0.0 0.00 0.00 0.00 51 1020.7
20260508202353 20 233 0.0 0.0 0.00 0.00 0.00 50 1020.6
20260508201352 19 260 1.6 0.0 0.00 0.00 0.00 52 1020.7
20260508200351 19 271 0.0 0.0 0.00 0.00 0.00 51 1020.8
20260508195350 18 221 0.0 0.0 0.00 0.00 0.00 52 1020.9
20260508194349 18 185 0.0 0.0 0.00 0.00 0.00 52 1021.0
20260508193348 17 161 0.0 0.0 0.00 0.00 0.00 56 1020.9
20260508192347 17 220 6.4 0.0 0.00 0.00 0.00 57 1020.8
20260508191346 16 274 0.0 0.0 0.00 0.00 0.00 57 1021.0
20260508190345 16 250 4.8 0.0 0.00 0.00 0.00 58 1021.1
20260508185344 16 244 0.0 0.0 0.00 0.00 0.00 59 1021.1
20260508184343 16 246 1.6 0.0 0.00 0.00 0.00 61 1021.1
20260508183342 16 207 0.0 0.0 0.00 0.00 0.00 57 1021.0
20260508182341 16 228 9.7 0.0 0.00 0.00 0.00 62 1021.1
20260508181340 15 226 0.0 0.0 0.00 0.00 0.00 61 1021.0
20260508180339 14 234 0.0 0.0 0.00 0.00 0.00 68 1020.9
20260508175338 14 211 0.0 0.0 0.00 0.00 0.00 66 1020.9
20260508174337 14 211 0.0 0.0 0.00 0.00 0.00 68 1020.8
20260508173336 13 323 0.0 0.0 0.00 0.00 0.00 71 1020.7
20260508172335 13 188 0.0 0.0 0.00 0.00 0.00 70 1020.6
20260508171334 13 188 0.0 0.0 0.00 0.00 0.00 70 1020.5
20260508170333 13 188 0.0 0.0 0.00 0.00 0.00 73 1020.4
20260508165333 13 188 0.0 0.0 0.00 0.00 0.00 73 1020.3
20260508163330 12 188 0.0 0.0 0.00 0.00 0.00 73 1020.0
20260508162329 12 188 0.0 0.0 0.00 0.00 0.00 75 1020.0
20260508161328 12 188 0.0 0.0 0.00 0.00 0.00 75 1020.0
20260508160327 12 182 1.6 0.0 0.00 0.00 0.00 75 1019.9
20260508154325 11 211 3.2 0.0 0.00 0.00 0.00 77 1019.9
20260508152323 11 140 6.4 0.0 0.00 0.00 0.00 78 1019.9
20260508151322 11 178 0.0 0.0 0.00 0.00 0.00 79 1019.9
20260508150321 11 144 0.0 0.0 0.00 0.00 0.00 79 1020.0
20260508145319 11 144 0.0 0.0 0.00 0.00 0.00 79 1020.0
20260508144319 11 184 0.0 0.0 0.00 0.00 0.00 79 1020.1
20260508143318 11 186 0.0 0.0 0.00 0.00 0.00 78 1020.0
20260508142317 10 257 0.0 0.0 0.00 0.00 0.00 79 1020.0
20260508141315 10 252 4.8 0.0 0.00 0.00 0.00 80 1019.8
20260508135314 10 156 0.0 0.0 0.00 0.00 0.00 79 1019.4
20260508134313 10 121 0.0 0.0 0.00 0.00 0.00 78 1019.2
20260508133311 10 121 0.0 0.0 0.00 0.00 0.00 78 1018.9
20260508132310 10 18 0.0 0.0 0.00 0.00 0.00 79 1018.7
20260508131309 10 18 0.0 0.0 0.00 0.00 0.00 77 1018.5
20260508130309 11 18 0.0 0.0 0.00 0.00 0.00 76 1018.3
20260508125308 11 18 0.0 0.0 0.00 0.00 0.00 78 1018.0
20260508124306 11 18 0.0 0.0 0.00 0.00 0.00 78 1018.0
20260508123306 11 18 0.0 0.0 0.00 0.00 0.00 79 1017.8
20260508122307 11 18 0.0 0.0 0.00 0.00 0.00 79 1017.8
20260508120302 11 319 0.0 0.0 0.00 0.00 0.00 79 1017.7
20260508115301 11 319 0.0 0.0 0.00 0.00 0.00 79 1017.7
20260508114300 11 319 0.0 0.0 0.00 0.00 0.00 80 1017.5
20260508113300 11 319 0.0 0.0 0.00 0.00 0.00 80 1017.4
20260508112258 11 319 0.0 0.0 0.00 0.00 0.00 81 1017.2
20260508111257 11 319 0.0 0.0 0.00 0.00 0.00 81 1017.1
20260508110256 11 319 0.0 0.0 0.00 0.00 0.00 81 1017.0
20260508105255 11 319 0.0 0.0 0.00 0.00 0.00 81 1016.8
20260508103253 11 319 0.0 0.0 0.00 0.00 0.00 81 1016.7
20260508102252 11 319 0.0 0.0 0.00 0.00 0.00 81 1016.6
20260508101251 11 319 0.0 0.0 0.00 0.00 0.00 81 1016.6
20260508100250 11 319 0.0 0.0 0.00 0.00 0.00 80 1016.5
20260508095249 11 319 0.0 0.0 0.00 0.00 0.00 80 1016.4
20260508093247 11 319 0.0 0.0 0.00 0.00 0.00 79 1016.2
20260508092246 11 319 0.0 0.0 0.00 0.00 0.00 78 1016.1
20260508090244 12 319 0.0 0.0 0.00 0.00 0.00 77 1016.0
20260508085243 12 319 0.0 0.0 0.00 0.00 0.00 76 1015.9
20260508084242 12 319 0.0 0.0 0.00 0.00 0.00 75 1015.8
20260508083241 12 319 0.0 0.0 0.00 0.00 0.00 74 1015.8
20260508082240 12 319 0.0 0.0 0.00 0.00 0.00 73 1015.8
20260508081239 12 319 0.0 0.0 0.00 0.00 0.00 72 1015.8
20260508080238 13 319 0.0 0.0 0.00 0.00 0.00 72 1015.6
20260508075237 13 319 0.0 0.0 0.00 0.00 0.00 71 1015.6
20260508074236 13 319 0.0 0.0 0.00 0.00 0.00 70 1015.6
20260508073235 13 319 0.0 0.0 0.00 0.00 0.00 69 1015.6
20260508072234 13 319 0.0 0.0 0.00 0.00 0.00 67 1015.6
20260508071233 14 319 0.0 0.0 0.00 0.00 0.00 67 1015.5
20260508070232 14 319 0.0 0.0 0.00 0.00 0.00 66 1015.5
20260508065231 14 319 0.0 0.0 0.00 0.00 0.00 65 1015.6
20260508064230 15 319 0.0 0.0 0.00 0.00 0.00 63 1015.5
20260508063229 15 319 0.0 0.0 0.00 0.00 0.00 63 1015.4
20260508062228 15 319 0.0 0.0 0.00 0.00 0.00 61 1015.4
20260508061227 15 319 0.0 0.0 0.00 0.00 0.00 61 1015.5
20260508060226 15 319 0.0 0.0 0.00 0.00 0.00 61 1015.5
20260508055225 15 319 0.0 0.0 0.00 0.00 0.00 61 1015.5
20260508054224 15 319 0.0 0.0 0.00 0.00 0.00 62 1015.4
20260508051221 16 319 0.0 0.0 0.00 0.00 0.00 63 1015.3
20260508050220 16 319 0.0 0.0 0.00 0.00 0.00 63 1015.3
20260508045219 16 319 0.0 0.0 0.00 0.00 0.00 61 1015.3
20260508044218 16 319 0.0 0.0 0.00 0.00 0.00 60 1015.3
20260508043217 17 319 0.0 0.0 0.00 0.00 0.00 58 1015.2
20260508042216 17 319 0.0 0.0 0.00 0.00 0.00 56 1015.2
20260508041215 18 319 0.0 0.0 0.00 0.00 0.00 56 1015.2
20260508040214 18 319 0.0 0.0 0.00 0.00 0.00 56 1015.1
20260508035213 18 319 0.0 0.0 0.00 0.00 0.00 52 1014.9
20260508034212 18 319 0.0 0.0 0.00 0.00 0.00 51 1014.8
20260508033211 19 319 3.2 0.0 0.00 0.00 0.00 48 1014.7
20260508032210 19 319 0.0 0.0 0.00 0.00 0.00 47 1014.6
20260508031208 20 319 0.0 0.0 0.00 0.00 0.00 45 1014.5
20260508030208 20 319 0.0 0.0 0.00 0.00 0.00 44 1014.4
20260508025206 20 319 0.0 0.0 0.00 0.00 0.00 44 1014.4
20260508023205 20 319 0.0 0.0 0.00 0.00 0.00 43 1014.5
20260508022204 21 319 0.0 0.0 0.00 0.00 0.00 42 1014.5
20260508021203 21 319 0.0 0.0 0.00 0.00 0.00 41 1014.4
20260508015200 21 319 0.0 0.0 0.00 0.00 0.00 40 1014.7
20260508014200 21 319 0.0 0.0 0.00 0.00 0.00 43 1014.8
20260508013158 21 345 0.0 0.0 0.00 0.00 0.00 43 1014.8
20260508012158 21 346 0.0 0.0 0.00 0.00 0.00 42 1014.9
20260508004153 22 92 0.0 0.0 0.00 0.00 0.00 36 1015.2
20260508003152 23 109 0.0 0.0 0.00 0.00 0.00 37 1015.3
20260508002152 24 345 0.0 0.0 0.00 0.00 0.00 36 1015.3
20260508001150 25 328 4.8 0.0 0.00 0.00 0.00 36 1015.4
20260507235148 25 196 0.0 0.0 0.00 0.00 0.00 34 1015.5
20260507234147 25 195 0.0 0.0 0.00 0.00 0.00 35 1015.6
20260507233147 25 216 0.0 0.0 0.00 0.00 0.00 35 1015.7
20260507232145 25 266 0.0 0.0 0.00 0.00 0.00 34 1015.9
20260507231145 24 313 0.0 0.0 0.00 0.00 0.00 34 1015.9
20260507230143 24 329 12.9 0.0 0.00 0.00 0.00 37 1016.1
20260507225142 23 44 0.0 0.0 0.00 0.00 0.00 37 1016.2
20260507224141 23 311 0.0 0.0 0.00 0.00 0.00 36 1016.2
20260507223140 24 314 0.0 0.0 0.00 0.00 0.00 37 1016.4